Year,Month,Day,Hour,Minute,Value (Times are PST for temperature in C)
2014,07,16,00,00,19.20
2014,07,16,00,01,19.20
2014,07,16,00,02,19.20
2014,07,16,00,03,19.20
2014,07,16,00,04,19.20
2014,07,16,00,05,19.20
2014,07,16,00,06,19.20
2014,07,16,00,07,19.10
2014,07,16,00,08,19.10
2014,07,16,00,09,19.10
2014,07,16,00,10,19.10
2014,07,16,00,11,19.10
2014,07,16,00,12,19.00
2014,07,16,00,13,19.00
2014,07,16,00,14,19.00
2014,07,16,00,15,19.00
2014,07,16,00,16,18.90
2014,07,16,00,17,18.90
2014,07,16,00,18,18.90
2014,07,16,00,19,18.90
2014,07,16,00,20,18.90
2014,07,16,00,21,18.80
2014,07,16,00,22,18.80
2014,07,16,00,23,18.80
2014,07,16,00,24,18.80
2014,07,16,00,25,18.80
2014,07,16,00,26,18.70
2014,07,16,00,27,18.70
2014,07,16,00,28,18.70
2014,07,16,00,29,18.70
2014,07,16,00,30,18.60
2014,07,16,00,31,18.60
2014,07,16,00,32,18.60
2014,07,16,00,33,18.60
2014,07,16,00,34,18.60
2014,07,16,00,35,18.50
2014,07,16,00,36,18.50
2014,07,16,00,37,18.50
2014,07,16,00,38,18.40
2014,07,16,00,39,18.40
2014,07,16,00,40,18.40
2014,07,16,00,41,18.40
2014,07,16,00,42,18.40
2014,07,16,00,43,18.40
2014,07,16,00,44,18.40
2014,07,16,00,45,18.30
2014,07,16,00,46,18.30
2014,07,16,00,47,18.30
2014,07,16,00,48,18.20
2014,07,16,00,49,18.20
2014,07,16,00,50,18.20
2014,07,16,00,51,18.20
2014,07,16,00,52,18.20
2014,07,16,00,53,18.10
2014,07,16,00,54,18.10
2014,07,16,00,55,18.10
2014,07,16,00,56,18.00
2014,07,16,00,57,18.00
2014,07,16,00,58,18.00
2014,07,16,00,59,17.90
2014,07,16,01,00,17.90
2014,07,16,01,01,17.90
2014,07,16,01,02,17.90
2014,07,16,01,03,17.90
2014,07,16,01,04,17.90
2014,07,16,01,05,17.90
2014,07,16,01,06,17.80
2014,07,16,01,07,17.80
2014,07,16,01,08,17.80
2014,07,16,01,09,17.80
2014,07,16,01,10,17.80
2014,07,16,01,11,17.80
2014,07,16,01,12,17.80
2014,07,16,01,13,17.70
2014,07,16,01,14,17.70
2014,07,16,01,15,17.70
2014,07,16,01,16,17.60
2014,07,16,01,17,17.60
2014,07,16,01,18,17.60
2014,07,16,01,19,17.60
2014,07,16,01,20,17.60
2014,07,16,01,21,17.50
2014,07,16,01,22,17.50
2014,07,16,01,23,17.50
2014,07,16,01,24,17.50
2014,07,16,01,25,17.40
2014,07,16,01,26,17.40
2014,07,16,01,27,17.40
2014,07,16,01,28,17.30
2014,07,16,01,29,17.30
2014,07,16,01,30,17.30
2014,07,16,01,31,17.30
2014,07,16,01,32,17.20
2014,07,16,01,33,17.20
2014,07,16,01,34,17.20
2014,07,16,01,35,17.20
2014,07,16,01,36,17.10
2014,07,16,01,37,17.10
2014,07,16,01,38,17.10
2014,07,16,01,39,17.00
2014,07,16,01,40,17.00
2014,07,16,01,41,17.00
2014,07,16,01,42,16.90
2014,07,16,01,43,16.90
2014,07,16,01,44,16.90
2014,07,16,01,45,16.80
2014,07,16,01,46,16.80
2014,07,16,01,47,16.80
2014,07,16,01,48,16.70
2014,07,16,01,49,16.70
2014,07,16,01,50,16.70
2014,07,16,01,51,16.60
2014,07,16,01,52,16.60
2014,07,16,01,53,16.60
2014,07,16,01,54,16.50
2014,07,16,01,55,16.50
2014,07,16,01,56,16.50
2014,07,16,01,57,16.40
2014,07,16,01,58,16.40
2014,07,16,01,59,16.40
2014,07,16,02,00,16.40
2014,07,16,02,01,16.40
2014,07,16,02,02,16.30
2014,07,16,02,03,16.30
2014,07,16,02,04,16.30
2014,07,16,02,05,16.30
2014,07,16,02,06,16.20
2014,07,16,02,07,16.20
2014,07,16,02,08,16.20
2014,07,16,02,09,16.20
2014,07,16,02,10,16.20
2014,07,16,02,11,16.10
2014,07,16,02,12,16.10
2014,07,16,02,13,16.10
2014,07,16,02,14,16.10
2014,07,16,02,15,16.10
2014,07,16,02,16,16.00
2014,07,16,02,17,16.00
2014,07,16,02,18,16.00
2014,07,16,02,19,15.90
2014,07,16,02,20,15.90
2014,07,16,02,21,15.90
2014,07,16,02,22,15.90
2014,07,16,02,23,15.80
2014,07,16,02,24,15.80
2014,07,16,02,25,15.80
2014,07,16,02,26,15.80
2014,07,16,02,27,15.80
2014,07,16,02,28,15.70
2014,07,16,02,29,15.70
2014,07,16,02,30,15.70
2014,07,16,02,31,15.70
2014,07,16,02,32,15.60
2014,07,16,02,33,15.60
2014,07,16,02,34,15.60
2014,07,16,02,35,15.50
2014,07,16,02,36,15.50
2014,07,16,02,37,15.50
2014,07,16,02,38,15.50
2014,07,16,02,39,15.40
2014,07,16,02,40,15.40
2014,07,16,02,41,15.40
2014,07,16,02,42,15.40
2014,07,16,02,43,15.40
2014,07,16,02,44,15.30
2014,07,16,02,45,15.30
2014,07,16,02,46,15.30
2014,07,16,02,47,15.30
2014,07,16,02,48,15.30
2014,07,16,02,49,15.30
2014,07,16,02,50,15.20
2014,07,16,02,51,15.20
2014,07,16,02,52,15.20
2014,07,16,02,53,15.20
2014,07,16,02,54,15.20
2014,07,16,02,55,15.20
2014,07,16,02,56,15.10
2014,07,16,02,57,15.10
2014,07,16,02,58,15.10
2014,07,16,02,59,15.10
2014,07,16,03,00,15.10
2014,07,16,03,01,15.10
2014,07,16,03,02,15.10
2014,07,16,03,03,15.10
2014,07,16,03,04,15.10
2014,07,16,03,05,15.00
2014,07,16,03,06,15.00
2014,07,16,03,07,15.00
2014,07,16,03,08,15.00
2014,07,16,03,09,15.00
2014,07,16,03,10,15.00
2014,07,16,03,11,15.00
2014,07,16,03,12,14.90
2014,07,16,03,13,14.90
2014,07,16,03,14,14.90
2014,07,16,03,15,14.90
2014,07,16,03,16,14.90
2014,07,16,03,17,14.90
2014,07,16,03,18,14.90
2014,07,16,03,19,14.90
2014,07,16,03,20,14.90
2014,07,16,03,21,14.90
2014,07,16,03,22,14.90
2014,07,16,03,23,14.90
2014,07,16,03,24,14.80
2014,07,16,03,25,14.80
2014,07,16,03,26,14.80
2014,07,16,03,27,14.80
2014,07,16,03,28,14.80
2014,07,16,03,29,14.80
2014,07,16,03,30,14.80
2014,07,16,03,31,14.80
2014,07,16,03,32,14.80
2014,07,16,03,33,14.80
2014,07,16,03,34,14.80
2014,07,16,03,35,14.80
2014,07,16,03,36,14.70
2014,07,16,03,37,14.70
2014,07,16,03,38,14.70
2014,07,16,03,39,14.70
2014,07,16,03,40,14.70
2014,07,16,03,41,14.70
2014,07,16,03,42,14.70
2014,07,16,03,43,14.70
2014,07,16,03,44,14.70
2014,07,16,03,45,14.70
2014,07,16,03,46,14.70
2014,07,16,03,47,14.70
2014,07,16,03,48,14.70
2014,07,16,03,49,14.70
2014,07,16,03,50,14.80
2014,07,16,03,51,14.80
2014,07,16,03,52,14.80
2014,07,16,03,53,14.80
2014,07,16,03,54,14.80
2014,07,16,03,55,14.90
2014,07,16,03,56,14.90
2014,07,16,03,57,14.90
2014,07,16,03,58,14.90
2014,07,16,03,59,14.90
2014,07,16,04,00,14.90
2014,07,16,04,01,15.00
2014,07,16,04,02,15.00
2014,07,16,04,03,15.00
2014,07,16,04,04,15.00
2014,07,16,04,05,15.10
2014,07,16,04,06,15.10
2014,07,16,04,07,15.10
2014,07,16,04,08,15.10
2014,07,16,04,09,15.10
2014,07,16,04,10,15.20
2014,07,16,04,11,15.20
2014,07,16,04,12,15.20
2014,07,16,04,13,15.20
2014,07,16,04,14,15.20
2014,07,16,04,15,15.20
2014,07,16,04,16,15.20
2014,07,16,04,17,15.30
2014,07,16,04,18,15.30
2014,07,16,04,19,15.30
2014,07,16,04,20,15.30
2014,07,16,04,21,15.30
2014,07,16,04,22,15.30
2014,07,16,04,23,15.30
2014,07,16,04,24,15.30
2014,07,16,04,25,15.30
2014,07,16,04,26,15.30
2014,07,16,04,27,15.30
2014,07,16,04,28,15.30
2014,07,16,04,29,15.30
2014,07,16,04,30,15.30
2014,07,16,04,31,15.20
2014,07,16,04,32,15.20
2014,07,16,04,33,15.20
2014,07,16,04,34,15.20
2014,07,16,04,35,15.20
2014,07,16,04,36,15.20
2014,07,16,04,37,15.20
2014,07,16,04,38,15.20
2014,07,16,04,39,15.20
2014,07,16,04,40,15.10
2014,07,16,04,41,15.10
2014,07,16,04,42,15.10
2014,07,16,04,43,15.10
2014,07,16,04,44,15.10
2014,07,16,04,45,15.00
2014,07,16,04,46,15.00
2014,07,16,04,47,15.00
2014,07,16,04,48,14.90
2014,07,16,04,49,14.90
2014,07,16,04,50,14.90
2014,07,16,04,51,14.90
2014,07,16,04,52,14.80
2014,07,16,04,53,14.80
2014,07,16,04,54,14.80
2014,07,16,04,55,14.80
2014,07,16,04,56,14.80
2014,07,16,04,57,14.70
2014,07,16,04,58,14.70
2014,07,16,04,59,14.70
2014,07,16,05,00,14.70
2014,07,16,05,01,14.60
2014,07,16,05,02,14.60
2014,07,16,05,03,14.60
2014,07,16,05,04,14.60
2014,07,16,05,05,14.60
2014,07,16,05,06,14.60
2014,07,16,05,07,14.60
2014,07,16,05,08,14.50
2014,07,16,05,09,14.50
2014,07,16,05,10,14.50
2014,07,16,05,11,14.40
2014,07,16,05,12,14.40
2014,07,16,05,13,14.40
2014,07,16,05,14,14.40
2014,07,16,05,15,14.40
2014,07,16,05,16,14.40
2014,07,16,05,17,14.40
2014,07,16,05,18,14.40
2014,07,16,05,19,14.40
2014,07,16,05,20,14.30
2014,07,16,05,21,14.30
2014,07,16,05,22,14.30
2014,07,16,05,23,14.30
2014,07,16,05,24,14.30
2014,07,16,05,25,14.30
2014,07,16,05,26,14.30
2014,07,16,05,27,14.30
2014,07,16,05,28,14.30
2014,07,16,05,29,14.30
2014,07,16,05,30,14.30
2014,07,16,05,31,14.20
2014,07,16,05,32,14.20
2014,07,16,05,33,14.20
2014,07,16,05,34,14.20
2014,07,16,05,35,14.20
2014,07,16,05,36,14.20
2014,07,16,05,37,14.20
2014,07,16,05,38,14.20
2014,07,16,05,39,14.20
2014,07,16,05,40,14.20
2014,07,16,05,41,14.20
2014,07,16,05,42,14.20
2014,07,16,05,43,14.20
2014,07,16,05,44,14.20
2014,07,16,05,45,14.20
2014,07,16,05,46,14.20
2014,07,16,05,47,14.20
2014,07,16,05,48,14.20
2014,07,16,05,49,14.20
2014,07,16,05,50,14.20
2014,07,16,05,51,14.20
2014,07,16,05,52,14.20
2014,07,16,05,53,14.20
2014,07,16,05,54,14.20
2014,07,16,05,55,14.20
2014,07,16,05,56,14.20
2014,07,16,05,57,14.20
2014,07,16,05,58,14.20
2014,07,16,05,59,14.30
2014,07,16,06,00,14.30
2014,07,16,06,01,14.30
2014,07,16,06,02,14.30
2014,07,16,06,03,14.40
2014,07,16,06,04,14.50
2014,07,16,06,05,14.50
2014,07,16,06,06,14.60
2014,07,16,06,07,14.60
2014,07,16,06,08,14.70
2014,07,16,06,09,14.80
2014,07,16,06,10,14.80
2014,07,16,06,11,14.90
2014,07,16,06,12,14.90
2014,07,16,06,13,15.00
2014,07,16,06,14,15.00
2014,07,16,06,15,15.10
2014,07,16,06,16,15.10
2014,07,16,06,17,15.10
2014,07,16,06,18,15.10
2014,07,16,06,19,15.20
2014,07,16,06,20,15.20
2014,07,16,06,21,15.20
2014,07,16,06,22,15.20
2014,07,16,06,23,15.20
2014,07,16,06,24,15.30
2014,07,16,06,25,15.30
2014,07,16,06,26,15.30
2014,07,16,06,27,15.40
2014,07,16,06,28,15.40
2014,07,16,06,29,15.40
2014,07,16,06,30,15.50
2014,07,16,06,31,15.50
2014,07,16,06,32,15.50
2014,07,16,06,33,15.60
2014,07,16,06,34,15.60
2014,07,16,06,35,15.60
2014,07,16,06,36,15.60
2014,07,16,06,37,15.60
2014,07,16,06,38,15.60
2014,07,16,06,39,15.70
2014,07,16,06,40,15.70
2014,07,16,06,41,15.70
2014,07,16,06,42,15.70
2014,07,16,06,43,15.70
2014,07,16,06,44,15.70
2014,07,16,06,45,15.80
2014,07,16,06,46,15.80
2014,07,16,06,47,15.90
2014,07,16,06,48,15.90
2014,07,16,06,49,15.90
2014,07,16,06,50,16.00
2014,07,16,06,51,16.00
2014,07,16,06,52,16.10
2014,07,16,06,53,16.10
2014,07,16,06,54,16.10
2014,07,16,06,55,16.20
2014,07,16,06,56,16.20
2014,07,16,06,57,16.20
2014,07,16,06,58,16.20
2014,07,16,06,59,16.20
2014,07,16,07,00,16.20
2014,07,16,07,01,16.30
2014,07,16,07,02,16.30
2014,07,16,07,03,16.30
2014,07,16,07,04,16.30
2014,07,16,07,05,16.40
2014,07,16,07,06,16.40
2014,07,16,07,07,16.40
2014,07,16,07,08,16.50
2014,07,16,07,09,16.60
2014,07,16,07,10,16.60
2014,07,16,07,11,16.70
2014,07,16,07,12,16.70
2014,07,16,07,13,16.70
2014,07,16,07,14,16.70
2014,07,16,07,15,16.70
2014,07,16,07,16,16.70
2014,07,16,07,17,16.70
2014,07,16,07,18,16.70
2014,07,16,07,19,16.70
2014,07,16,07,20,16.80
2014,07,16,07,21,16.80
2014,07,16,07,22,16.80
2014,07,16,07,23,16.80
2014,07,16,07,24,16.80
2014,07,16,07,25,16.80
2014,07,16,07,26,16.80
2014,07,16,07,27,16.80
2014,07,16,07,28,16.90
2014,07,16,07,29,16.90
2014,07,16,07,30,16.90
2014,07,16,07,31,17.00
2014,07,16,07,32,17.00
2014,07,16,07,33,17.10
2014,07,16,07,34,17.10
2014,07,16,07,35,17.10
2014,07,16,07,36,17.10
2014,07,16,07,37,17.10
2014,07,16,07,38,17.20
2014,07,16,07,39,17.20
2014,07,16,07,40,17.20
2014,07,16,07,41,17.30
2014,07,16,07,42,17.40
2014,07,16,07,43,17.40
2014,07,16,07,44,17.40
2014,07,16,07,45,17.50
2014,07,16,07,46,17.50
2014,07,16,07,47,17.60
2014,07,16,07,48,17.60
2014,07,16,07,49,17.60
2014,07,16,07,50,17.60
2014,07,16,07,51,17.60
2014,07,16,07,52,17.70
2014,07,16,07,53,17.70
2014,07,16,07,54,17.80
2014,07,16,07,55,17.80
2014,07,16,07,56,17.80
2014,07,16,07,57,17.80
2014,07,16,07,58,17.80
2014,07,16,07,59,17.80
2014,07,16,08,00,17.90
2014,07,16,08,01,17.90
2014,07,16,08,02,17.90
2014,07,16,08,03,18.00
2014,07,16,08,04,18.10
2014,07,16,08,05,18.10
2014,07,16,08,06,18.10
2014,07,16,08,07,18.10
2014,07,16,08,08,18.20
2014,07,16,08,09,18.20
2014,07,16,08,10,18.20
2014,07,16,08,11,18.30
2014,07,16,08,12,18.30
2014,07,16,08,13,18.30
2014,07,16,08,14,18.30
2014,07,16,08,15,18.40
2014,07,16,08,16,18.40
2014,07,16,08,17,18.50
2014,07,16,08,18,18.50
2014,07,16,08,19,18.50
2014,07,16,08,20,18.60
2014,07,16,08,21,18.60
2014,07,16,08,22,18.60
2014,07,16,08,23,18.60
2014,07,16,08,24,18.70
2014,07,16,08,25,18.70
2014,07,16,08,26,18.70
2014,07,16,08,27,18.70
2014,07,16,08,28,18.70
2014,07,16,08,29,18.70
2014,07,16,08,30,18.70
2014,07,16,08,31,18.60
2014,07,16,08,32,18.60
2014,07,16,08,33,18.50
2014,07,16,08,34,18.40
2014,07,16,08,35,18.40
2014,07,16,08,36,18.30
2014,07,16,08,37,18.30
2014,07,16,08,38,18.30
2014,07,16,08,39,18.40
2014,07,16,08,40,18.40
2014,07,16,08,41,18.40
2014,07,16,08,42,18.40
2014,07,16,08,43,18.50
2014,07,16,08,44,18.50
2014,07,16,08,45,18.60
2014,07,16,08,46,18.60
2014,07,16,08,47,18.60
2014,07,16,08,48,18.60
2014,07,16,08,49,18.60
2014,07,16,08,50,18.60
2014,07,16,08,51,18.60
2014,07,16,08,52,18.60
2014,07,16,08,53,18.70
2014,07,16,08,54,18.70
2014,07,16,08,55,18.70
2014,07,16,08,56,18.70
2014,07,16,08,57,18.70
2014,07,16,08,58,18.80
2014,07,16,08,59,18.80
2014,07,16,09,00,18.80
2014,07,16,09,01,18.80
2014,07,16,09,02,18.80
2014,07,16,09,03,18.80
2014,07,16,09,04,18.70
2014,07,16,09,05,18.70
2014,07,16,09,06,18.70
2014,07,16,09,07,18.70
2014,07,16,09,08,18.70
2014,07,16,09,09,18.70
2014,07,16,09,10,18.70
2014,07,16,09,11,18.70
2014,07,16,09,12,18.70
2014,07,16,09,13,18.80
2014,07,16,09,14,18.80
2014,07,16,09,15,18.80
2014,07,16,09,16,18.80
2014,07,16,09,17,18.80
2014,07,16,09,18,18.80
2014,07,16,09,19,18.80
2014,07,16,09,20,18.90
2014,07,16,09,21,18.90
2014,07,16,09,22,19.00
2014,07,16,09,23,19.10
2014,07,16,09,24,19.20
2014,07,16,09,25,19.30
2014,07,16,09,26,19.40
2014,07,16,09,27,19.50
2014,07,16,09,28,19.60
2014,07,16,09,29,19.60
2014,07,16,09,30,19.70
2014,07,16,09,31,19.70
2014,07,16,09,32,19.80
2014,07,16,09,33,19.90
2014,07,16,09,34,19.90
2014,07,16,09,35,20.00
2014,07,16,09,36,20.10
2014,07,16,09,37,20.20
2014,07,16,09,38,20.20
2014,07,16,09,39,20.20
2014,07,16,09,40,20.10
2014,07,16,09,41,20.10
2014,07,16,09,42,20.10
2014,07,16,09,43,20.10
2014,07,16,09,44,20.10
2014,07,16,09,45,20.10
2014,07,16,09,46,20.10
2014,07,16,09,47,20.00
2014,07,16,09,48,20.00
2014,07,16,09,49,20.10
2014,07,16,09,50,20.10
2014,07,16,09,51,20.10
2014,07,16,09,52,20.10
2014,07,16,09,53,20.10
2014,07,16,09,54,20.10
2014,07,16,09,55,20.10
2014,07,16,09,56,20.10
2014,07,16,09,57,20.10
2014,07,16,09,58,20.10
2014,07,16,09,59,20.10
2014,07,16,10,00,20.10
2014,07,16,10,01,20.10
2014,07,16,10,02,20.00
2014,07,16,10,03,20.00
2014,07,16,10,04,20.00
2014,07,16,10,05,20.00
2014,07,16,10,06,20.00
2014,07,16,10,07,20.00
2014,07,16,10,08,20.00
2014,07,16,10,09,20.10
2014,07,16,10,10,20.10
2014,07,16,10,11,20.10
2014,07,16,10,12,20.10
2014,07,16,10,13,20.10
2014,07,16,10,14,20.10
2014,07,16,10,15,20.20
2014,07,16,10,16,20.20
2014,07,16,10,17,20.30
2014,07,16,10,18,20.40
2014,07,16,10,19,20.40
2014,07,16,10,20,20.40
2014,07,16,10,21,20.40
2014,07,16,10,22,20.40
2014,07,16,10,23,20.40
2014,07,16,10,24,20.40
2014,07,16,10,25,20.40
2014,07,16,10,26,20.40
2014,07,16,10,27,20.30
2014,07,16,10,28,20.30
2014,07,16,10,29,20.20
2014,07,16,10,30,20.20
2014,07,16,10,31,20.20
2014,07,16,10,32,20.20
2014,07,16,10,33,20.20
2014,07,16,10,34,20.20
2014,07,16,10,35,20.20
2014,07,16,10,36,20.10
2014,07,16,10,37,20.10
2014,07,16,10,38,20.10
2014,07,16,10,39,20.10
2014,07,16,10,40,20.10
2014,07,16,10,41,20.10
2014,07,16,10,42,20.10
2014,07,16,10,43,20.10
2014,07,16,10,44,20.10
2014,07,16,10,45,20.20
2014,07,16,10,46,20.20
2014,07,16,10,47,20.20
2014,07,16,10,48,20.20
2014,07,16,10,49,20.30
2014,07,16,10,50,20.30
2014,07,16,10,51,20.40
2014,07,16,10,52,20.40
2014,07,16,10,53,20.30
2014,07,16,10,54,20.30
2014,07,16,10,55,20.30
2014,07,16,10,56,20.20
2014,07,16,10,57,20.20
2014,07,16,10,58,20.20
2014,07,16,10,59,20.20
2014,07,16,11,00,20.20
2014,07,16,11,01,20.20
2014,07,16,11,02,20.20
2014,07,16,11,03,20.20
2014,07,16,11,04,20.30
2014,07,16,11,05,20.30
2014,07,16,11,06,20.40
2014,07,16,11,07,20.60
2014,07,16,11,08,20.70
2014,07,16,11,09,20.70
2014,07,16,11,10,20.70
2014,07,16,11,11,20.70
2014,07,16,11,12,20.70
2014,07,16,11,13,20.70
2014,07,16,11,14,20.70
2014,07,16,11,15,20.70
2014,07,16,11,16,20.70
2014,07,16,11,17,20.60
2014,07,16,11,18,20.60
2014,07,16,11,19,20.60
2014,07,16,11,20,20.60
2014,07,16,11,21,20.60
2014,07,16,11,22,20.60
2014,07,16,11,23,20.60
2014,07,16,11,24,20.60
2014,07,16,11,25,20.70
2014,07,16,11,26,20.70
2014,07,16,11,27,20.70
2014,07,16,11,28,20.80
2014,07,16,11,29,20.90
2014,07,16,11,30,20.90
2014,07,16,11,31,20.90
2014,07,16,11,32,20.90
2014,07,16,11,33,21.00
2014,07,16,11,34,21.00
2014,07,16,11,35,21.10
2014,07,16,11,36,21.10
2014,07,16,11,37,21.10
2014,07,16,11,38,21.20
2014,07,16,11,39,21.20
2014,07,16,11,40,21.20
2014,07,16,11,41,21.30
2014,07,16,11,42,21.40
2014,07,16,11,43,21.50
2014,07,16,11,44,21.60
2014,07,16,11,45,21.60
2014,07,16,11,46,21.70
2014,07,16,11,47,21.70
2014,07,16,11,48,21.70
2014,07,16,11,49,21.70
2014,07,16,11,50,21.80
2014,07,16,11,51,21.80
2014,07,16,11,52,21.80
2014,07,16,11,53,21.80
2014,07,16,11,54,21.70
2014,07,16,11,55,21.70
2014,07,16,11,56,21.60
2014,07,16,11,57,21.50
2014,07,16,11,58,21.50
2014,07,16,11,59,21.40
2014,07,16,12,00,21.40
2014,07,16,12,01,21.40
2014,07,16,12,02,21.40
2014,07,16,12,03,21.40
2014,07,16,12,04,21.30
2014,07,16,12,05,21.30
2014,07,16,12,06,21.40
2014,07,16,12,07,21.50
2014,07,16,12,08,21.50
2014,07,16,12,09,21.50
2014,07,16,12,10,21.60
2014,07,16,12,11,21.60
2014,07,16,12,12,21.60
2014,07,16,12,13,21.60
2014,07,16,12,14,21.70
2014,07,16,12,15,21.80
2014,07,16,12,16,21.80
2014,07,16,12,17,21.90
2014,07,16,12,18,21.90
2014,07,16,12,19,21.90
2014,07,16,12,20,21.90
2014,07,16,12,21,21.90
2014,07,16,12,22,22.00
2014,07,16,12,23,22.00
2014,07,16,12,24,22.10
2014,07,16,12,25,22.10
2014,07,16,12,26,22.30
2014,07,16,12,27,22.40
2014,07,16,12,28,22.50
2014,07,16,12,29,22.50
2014,07,16,12,30,22.60
2014,07,16,12,31,22.60
2014,07,16,12,32,22.60
2014,07,16,12,33,22.60
2014,07,16,12,34,22.70
2014,07,16,12,35,22.70
2014,07,16,12,36,22.70
2014,07,16,12,37,22.60
2014,07,16,12,38,22.60
2014,07,16,12,39,22.60
2014,07,16,12,40,22.60
2014,07,16,12,41,22.60
2014,07,16,12,42,22.70
2014,07,16,12,43,22.70
2014,07,16,12,44,22.70
2014,07,16,12,45,22.70
2014,07,16,12,46,22.70
2014,07,16,12,47,22.70
2014,07,16,12,48,22.60
2014,07,16,12,49,22.60
2014,07,16,12,50,22.70
2014,07,16,12,51,22.60
2014,07,16,12,52,22.70
2014,07,16,12,53,22.70
2014,07,16,12,54,22.70
2014,07,16,12,55,22.80
2014,07,16,12,56,22.80
2014,07,16,12,57,22.90
2014,07,16,12,58,22.90
2014,07,16,12,59,23.00
2014,07,16,13,00,23.00
2014,07,16,13,01,23.10
2014,07,16,13,02,23.20
2014,07,16,13,03,23.20
2014,07,16,13,04,23.30
2014,07,16,13,05,23.30
2014,07,16,13,06,23.40
2014,07,16,13,07,23.50
2014,07,16,13,08,23.60
2014,07,16,13,09,23.60
2014,07,16,13,10,23.70
2014,07,16,13,11,23.80
2014,07,16,13,12,23.80
2014,07,16,13,13,23.80
2014,07,16,13,14,23.80
2014,07,16,13,15,23.80
2014,07,16,13,16,23.80
2014,07,16,13,17,23.80
2014,07,16,13,18,23.70
2014,07,16,13,19,23.70
2014,07,16,13,20,23.70
2014,07,16,13,21,23.60
2014,07,16,13,22,23.60
2014,07,16,13,23,23.50
2014,07,16,13,24,23.50
2014,07,16,13,25,23.40
2014,07,16,13,26,23.40
2014,07,16,13,27,23.40
2014,07,16,13,28,23.50
2014,07,16,13,29,23.60
2014,07,16,13,30,23.70
2014,07,16,13,31,23.70
2014,07,16,13,32,23.70
2014,07,16,13,33,23.60
2014,07,16,13,34,23.50
2014,07,16,13,35,23.40
2014,07,16,13,36,23.30
2014,07,16,13,37,23.30
2014,07,16,13,38,23.40
2014,07,16,13,39,23.40
2014,07,16,13,40,23.50
2014,07,16,13,41,23.60
2014,07,16,13,42,23.60
2014,07,16,13,43,23.60
2014,07,16,13,44,23.60
2014,07,16,13,45,23.60
2014,07,16,13,46,23.60
2014,07,16,13,47,23.60
2014,07,16,13,48,23.60
2014,07,16,13,49,23.60
2014,07,16,13,50,23.50
2014,07,16,13,51,23.50
2014,07,16,13,52,23.50
2014,07,16,13,53,23.50
2014,07,16,13,54,23.50
2014,07,16,13,55,23.50
2014,07,16,13,56,23.60
2014,07,16,13,57,23.60
2014,07,16,13,58,23.60
2014,07,16,13,59,23.60
2014,07,16,14,00,23.60
2014,07,16,14,01,23.60
2014,07,16,14,02,23.50
2014,07,16,14,03,23.50
2014,07,16,14,04,23.50
2014,07,16,14,05,23.60
2014,07,16,14,06,23.60
2014,07,16,14,07,23.60
2014,07,16,14,08,23.60
2014,07,16,14,09,23.70
2014,07,16,14,10,23.80
2014,07,16,14,11,23.80
2014,07,16,14,12,23.90
2014,07,16,14,13,23.90
2014,07,16,14,14,23.90
2014,07,16,14,15,23.90
2014,07,16,14,16,23.90
2014,07,16,14,17,24.00
2014,07,16,14,18,24.00
2014,07,16,14,19,24.10
2014,07,16,14,20,24.20
2014,07,16,14,21,24.30
2014,07,16,14,22,24.30
2014,07,16,14,23,24.30
2014,07,16,14,24,24.40
2014,07,16,14,25,24.40
2014,07,16,14,26,24.40
2014,07,16,14,27,24.40
2014,07,16,14,28,24.30
2014,07,16,14,29,24.20
2014,07,16,14,30,24.20
2014,07,16,14,31,24.20
2014,07,16,14,32,24.20
2014,07,16,14,33,24.30
2014,07,16,14,34,24.40
2014,07,16,14,35,24.30
2014,07,16,14,36,24.30
2014,07,16,14,37,24.30
2014,07,16,14,38,24.30
2014,07,16,14,39,24.20
2014,07,16,14,40,24.20
2014,07,16,14,41,24.20
2014,07,16,14,42,24.20
2014,07,16,14,43,24.20
2014,07,16,14,44,24.30
2014,07,16,14,45,24.40
2014,07,16,14,46,24.40
2014,07,16,14,47,24.50
2014,07,16,14,48,24.50
2014,07,16,14,49,24.50
2014,07,16,14,50,24.50
2014,07,16,14,51,24.40
2014,07,16,14,52,24.40
2014,07,16,14,53,24.40
2014,07,16,14,54,24.50
2014,07,16,14,55,24.50
2014,07,16,14,56,24.50
2014,07,16,14,57,24.50
2014,07,16,14,58,24.50
2014,07,16,14,59,24.60
2014,07,16,15,00,24.70
2014,07,16,15,01,24.70
2014,07,16,15,02,24.70
2014,07,16,15,03,24.80
2014,07,16,15,04,24.80
2014,07,16,15,05,24.90
2014,07,16,15,06,24.90
2014,07,16,15,07,25.00
2014,07,16,15,08,25.00
2014,07,16,15,09,25.00
2014,07,16,15,10,24.90
2014,07,16,15,11,24.90
2014,07,16,15,12,24.80
2014,07,16,15,13,24.80
2014,07,16,15,14,24.80
2014,07,16,15,15,24.70
2014,07,16,15,16,24.70
2014,07,16,15,17,24.70
2014,07,16,15,18,24.70
2014,07,16,15,19,24.70
2014,07,16,15,20,24.70
2014,07,16,15,21,24.70
2014,07,16,15,22,24.70
2014,07,16,15,23,24.80
2014,07,16,15,24,24.80
2014,07,16,15,25,24.80
2014,07,16,15,26,24.90
2014,07,16,15,27,24.90
2014,07,16,15,28,25.00
2014,07,16,15,29,25.10
2014,07,16,15,30,25.10
2014,07,16,15,31,25.10
2014,07,16,15,32,25.20
2014,07,16,15,33,25.20
2014,07,16,15,34,25.20
2014,07,16,15,35,25.20
2014,07,16,15,36,25.20
2014,07,16,15,37,25.30
2014,07,16,15,38,25.30
2014,07,16,15,39,25.20
2014,07,16,15,40,25.20
2014,07,16,15,41,25.20
2014,07,16,15,42,25.20
2014,07,16,15,43,25.20
2014,07,16,15,44,25.20
2014,07,16,15,45,25.30
2014,07,16,15,46,25.30
2014,07,16,15,47,25.40
2014,07,16,15,48,25.40
2014,07,16,15,49,25.40
2014,07,16,15,50,25.50
2014,07,16,15,51,25.50
2014,07,16,15,52,25.50
2014,07,16,15,53,25.50
2014,07,16,15,54,25.50
2014,07,16,15,55,25.60
2014,07,16,15,56,25.60
2014,07,16,15,57,25.60
2014,07,16,15,58,25.70
2014,07,16,15,59,25.70
2014,07,16,16,00,25.70
2014,07,16,16,01,25.80
2014,07,16,16,02,25.80
2014,07,16,16,03,25.90
2014,07,16,16,04,25.90
2014,07,16,16,05,25.80
2014,07,16,16,06,25.80
2014,07,16,16,07,25.80
2014,07,16,16,08,25.70
2014,07,16,16,09,25.60
2014,07,16,16,10,25.60
2014,07,16,16,11,25.70
2014,07,16,16,12,25.70
2014,07,16,16,13,25.70
2014,07,16,16,14,25.80
2014,07,16,16,15,25.70
2014,07,16,16,16,25.70
2014,07,16,16,17,25.70
2014,07,16,16,18,25.70
2014,07,16,16,19,25.80
2014,07,16,16,20,25.90
2014,07,16,16,21,26.00
2014,07,16,16,22,26.10
2014,07,16,16,23,26.20
2014,07,16,16,24,26.20
2014,07,16,16,25,26.20
2014,07,16,16,26,26.30
2014,07,16,16,27,26.30
2014,07,16,16,28,26.30
2014,07,16,16,29,26.30
2014,07,16,16,30,26.30
2014,07,16,16,31,26.30
2014,07,16,16,32,26.30
2014,07,16,16,33,26.20
2014,07,16,16,34,26.20
2014,07,16,16,35,26.20
2014,07,16,16,36,26.20
2014,07,16,16,37,26.20
2014,07,16,16,38,26.30
2014,07,16,16,39,26.30
2014,07,16,16,40,26.30
2014,07,16,16,41,26.30
2014,07,16,16,42,26.30
2014,07,16,16,43,26.30
2014,07,16,16,44,26.20
2014,07,16,16,45,26.20
2014,07,16,16,46,26.10
2014,07,16,16,47,26.10
2014,07,16,16,48,26.10
2014,07,16,16,49,26.10
2014,07,16,16,50,26.10
2014,07,16,16,51,26.20
2014,07,16,16,52,26.10
2014,07,16,16,53,26.10
2014,07,16,16,54,26.10
2014,07,16,16,55,26.10
2014,07,16,16,56,26.20
2014,07,16,16,57,26.20
2014,07,16,16,58,26.30
2014,07,16,16,59,26.30
2014,07,16,17,00,26.30
2014,07,16,17,01,26.40
2014,07,16,17,02,26.40
2014,07,16,17,03,26.50
2014,07,16,17,04,26.50
2014,07,16,17,05,26.50
2014,07,16,17,06,26.50
2014,07,16,17,07,26.60
2014,07,16,17,08,26.60
2014,07,16,17,09,26.60
2014,07,16,17,10,26.60
2014,07,16,17,11,26.60
2014,07,16,17,12,26.50
2014,07,16,17,13,26.60
2014,07,16,17,14,26.60
2014,07,16,17,15,26.60
2014,07,16,17,16,26.60
2014,07,16,17,17,26.60
2014,07,16,17,18,26.60
2014,07,16,17,19,26.60